GW0819 Weather Reports


Display with metric or nautical units.
time (UTC)temp
F
wind
direction
speed
MPH
gust
MPH
rain 1hr
in
rain 24hr
in
rain mn
in
humidity
%
barometer
mb
20260506042437 53 105 15.0 23.0 0.00 0.00 0.00 60 1007.4
20260506041934 53 108 15.0 21.0 0.00 0.00 0.00 59 1007.5
20260506041432 53 100 14.0 19.0 0.00 0.00 0.00 59 1007.7
20260506040929 53 103 16.0 19.0 0.00 0.00 0.00 59 1007.3
20260506040427 53 95 9.0 22.0 0.00 0.00 0.00 58 1007.1
20260506035922 54 102 17.0 21.0 0.00 0.00 0.00 58 1007.4
20260506035420 54 101 14.0 17.0 0.00 0.00 0.00 58 1007.4
20260506034917 54 76 13.0 19.0 0.00 0.00 0.00 58 1007.3
20260506034414 54 88 12.0 20.0 0.00 0.00 0.00 57 1007.2
20260506033911 54 88 10.0 19.0 0.00 0.00 0.00 56 1007.0
20260506033408 54 76 17.0 22.0 0.00 0.00 0.00 56 1007.0
20260506032905 55 92 18.0 21.0 0.00 0.00 0.00 55 1007.0
20260506032402 55 74 21.0 26.0 0.00 0.00 0.00 55 1006.3
20260506031858 55 79 19.0 25.0 0.00 0.00 0.00 55 1006.4
20260506031356 55 76 17.0 20.0 0.00 0.00 0.00 55 1006.3
20260506030853 55 82 18.0 25.0 0.00 0.00 0.00 55 1006.5
20260506030351 55 73 18.0 23.0 0.00 0.00 0.00 55 1006.4
20260506025848 55 64 17.0 24.0 0.00 0.00 0.00 55 1006.3
20260506025344 55 70 21.0 26.0 0.00 0.00 0.00 55 1006.3
20260506024841 56 79 18.0 22.0 0.00 0.00 0.00 55 1006.2
20260506024338 56 96 23.0 29.0 0.00 0.00 0.00 55 1006.2
20260506023834 56 72 17.0 20.0 0.00 0.00 0.00 55 1005.7
20260506023331 56 71 15.0 28.0 0.00 0.00 0.00 54 1005.8
20260506022828 57 73 20.0 28.0 0.00 0.00 0.00 53 1005.7
20260506022326 57 65 14.0 24.0 0.00 0.00 0.00 53 1005.8
20260506021824 58 71 18.0 26.0 0.00 0.00 0.00 52 1005.6
20260506021320 58 65 14.0 23.0 0.00 0.00 0.00 51 1005.4
20260506020817 59 56 27.0 32.0 0.00 0.00 0.00 50 1005.6
20260506020315 60 59 20.0 28.0 0.00 0.00 0.00 47 1005.5
20260506015813 61 58 9.0 17.0 0.00 0.00 0.00 46 1005.5
20260506015310 61 47 11.0 21.0 0.00 0.00 0.00 46 1005.4
20260506014806 62 36 15.0 21.0 0.00 0.00 0.00 43 1004.8
20260506014303 63 16 9.0 17.0 0.00 0.00 0.00 41 1005.0
20260506013800 64 359 13.0 17.0 0.00 0.00 0.00 40 1004.8
20260506013257 64 12 14.0 19.0 0.00 0.00 0.00 40 1004.8
20260506012753 64 358 11.0 22.0 0.00 0.00 0.00 43 1004.8
20260506012250 64 330 22.0 31.0 0.00 0.00 0.00 44 1004.7
20260506011748 64 335 21.0 31.0 0.00 0.00 0.00 44 1004.6
20260506011244 64 323 29.0 41.0 0.00 0.00 0.00 44 1004.7
20260506010743 65 323 25.0 37.0 0.00 0.00 0.00 42 1004.4
20260506010239 65 322 30.0 39.0 0.00 0.00 0.00 39 1004.7
20260506005737 67 349 24.0 30.0 0.00 0.00 0.00 36 1004.1
20260506005233 73 260 26.0 29.0 0.00 0.00 0.00 23 1003.7
20260506004729 74 259 29.0 34.0 0.00 0.00 0.00 22 1003.5
20260506004227 74 250 28.0 32.0 0.00 0.00 0.00 23 1003.3
20260506003722 74 247 28.0 31.0 0.00 0.00 0.00 24 1003.5
20260506003220 74 229 23.0 28.0 0.00 0.00 0.00 27 1003.2
20260506002715 74 231 20.0 28.0 0.00 0.00 0.00 27 1003.3
20260506002211 75 232 20.0 26.0 0.00 0.00 0.00 27 1003.1
20260506001708 75 242 25.0 30.0 0.00 0.00 0.00 27 1003.1
20260506001205 75 239 24.0 31.0 0.00 0.00 0.00 26 1002.9
20260506000702 75 240 17.0 23.0 0.00 0.00 0.00 26 1003.3
20260506000200 75 223 19.0 24.0 0.00 0.00 0.00 27 1003.0
20260505235657 75 246 15.0 20.0 0.00 0.00 0.00 26 1003.2
20260505235155 75 229 24.0 32.0 0.00 0.00 0.00 26 1003.0
20260505234651 75 233 14.0 22.0 0.00 0.00 0.00 27 1003.1
20260505234148 75 225 22.0 24.0 0.00 0.00 0.00 27 1003.3
20260505233645 76 240 23.0 23.0 0.00 0.00 0.00 27 1003.2
20260505233143 75 222 21.0 29.0 0.00 0.00 0.00 28 1003.2
20260505232640 75 226 19.0 23.0 0.00 0.00 0.00 27 1003.0
20260505232138 75 240 19.0 24.0 0.00 0.00 0.00 27 1003.0
20260505231634 75 225 18.0 22.0 0.00 0.00 0.00 27 1003.3
20260505231133 75 209 21.0 24.0 0.00 0.00 0.00 28 1003.3
20260505230631 75 213 24.0 26.0 0.00 0.00 0.00 27 1003.1
20260505230126 74 222 15.0 19.0 0.00 0.00 0.00 29 1003.3
20260505225623 74 230 14.0 19.0 0.00 0.00 0.00 30 1003.6
20260505225119 74 245 6.0 10.0 0.00 0.00 0.00 29 1003.5
20260505224616 74 205 7.0 9.0 0.00 0.00 0.00 30 1003.7
20260505224114 73 251 5.0 12.0 0.00 0.00 0.00 31 1003.6
20260505223611 73 181 7.0 13.0 0.00 0.00 0.00 31 1003.9
20260505223107 73 230 10.0 11.0 0.00 0.00 0.00 31 1003.8
20260505222603 73 242 6.0 10.0 0.00 0.00 0.00 31 1004.0
20260505222059 73 224 8.0 11.0 0.00 0.00 0.00 31 1004.0
20260505221557 73 214 8.0 13.0 0.00 0.00 0.00 31 1004.0
20260505221053 72 246 13.0 18.0 0.00 0.00 0.00 32 1004.3
20260505220550 72 218 12.0 17.0 0.00 0.00 0.00 31 1004.3
20260505220048 72 245 15.0 19.0 0.00 0.00 0.00 32 1004.4
20260505215546 72 198 8.0 15.0 0.00 0.00 0.00 32 1004.5
20260505215044 72 228 10.0 11.0 0.00 0.00 0.00 33 1004.3
20260505214542 72 225 13.0 15.0 0.00 0.00 0.00 32 1004.4
20260505214038 71 227 10.0 11.0 0.00 0.00 0.00 33 1004.6
20260505213536 72 234 9.0 10.0 0.00 0.00 0.00 32 1004.6
20260505213032 71 245 11.0 17.0 0.00 0.00 0.00 33 1004.7
20260505212528 72 255 14.0 16.0 0.00 0.00 0.00 33 1005.0
20260505212026 71 240 14.0 19.0 0.00 0.00 0.00 33 1004.8
20260505211523 71 268 10.0 12.0 0.00 0.00 0.00 34 1004.8
20260505211019 71 248 9.0 15.0 0.00 0.00 0.00 33 1005.3
20260505210516 71 214 12.0 12.0 0.00 0.00 0.00 33 1005.3
20260505210014 70 186 5.0 17.0 0.00 0.00 0.00 34 1005.0
20260505205512 70 239 4.0 13.0 0.00 0.00 0.00 35 1005.3
20260505205008 70 271 6.0 10.0 0.00 0.00 0.00 35 1006.0
20260505204506 71 269 7.0 12.0 0.00 0.00 0.00 34 1005.7
20260505204003 69 206 3.0 16.0 0.00 0.00 0.00 35 1006.1
20260505203459 70 259 15.0 16.0 0.00 0.00 0.00 35 1006.0
20260505202956 70 275 11.0 13.0 0.00 0.00 0.00 35 1006.2
20260505202453 69 254 21.0 23.0 0.00 0.00 0.00 36 1006.3
20260505201948 69 267 23.0 28.0 0.00 0.00 0.00 35 1006.3
20260505201446 69 254 24.0 38.0 0.00 0.00 0.00 37 1006.3
20260505200943 70 256 25.0 29.0 0.00 0.00 0.00 34 1006.5
20260505200441 70 256 19.0 20.0 0.00 0.00 0.00 32 1006.4
20260505195936 69 242 12.0 13.0 0.00 0.00 0.00 32 1006.2
20260505195434 69 236 10.0 16.0 0.00 0.00 0.00 32 1006.4
20260505194931 71 255 7.0 14.0 0.00 0.00 0.00 30 1006.3
20260505194428 70 220 12.0 12.0 0.00 0.00 0.00 31 1006.3
20260505193928 70 326 6.0 7.0 0.00 0.00 0.00 31 1006.4
20260505193426 69 31 2.0 7.0 0.00 0.00 0.00 32 1006.2
20260505192924 69 232 0.0 7.0 0.00 0.00 0.00 32 1006.5
20260505192422 71 117 7.0 8.0 0.00 0.00 0.00 31 1006.4
20260505191919 69 25 4.0 6.0 0.00 0.00 0.00 31 1006.4
20260505191418 69 78 9.0 10.0 0.00 0.00 0.00 32 1006.9
20260505190914 69 99 11.0 14.0 0.00 0.00 0.00 32 1006.7
20260505190409 68 96 11.0 11.0 0.00 0.00 0.00 32 1006.7
20260505185905 69 118 11.0 14.0 0.00 0.00 0.00 32 1006.6
20260505185402 68 326 5.0 11.0 0.00 0.00 0.00 32 1006.9
20260505184858 70 80 12.0 23.0 0.00 0.00 0.00 32 1006.6
20260505184355 68 284 3.0 10.0 0.00 0.00 0.00 32 1007.1
20260505183852 67 22 8.0 15.0 0.00 0.00 0.00 34 1007.0
20260505183349 68 69 12.0 15.0 0.00 0.00 0.00 33 1007.0
20260505182846 66 72 4.0 11.0 0.00 0.00 0.00 35 1007.2
20260505182343 67 117 14.0 15.0 0.00 0.00 0.00 34 1007.0
20260505181839 66 118 13.0 14.0 0.00 0.00 0.00 34 1007.2
20260505181336 66 50 4.0 8.0 0.00 0.00 0.00 34 1007.4
20260505180833 66 43 11.0 13.0 0.00 0.00 0.00 35 1007.3
20260505180330 67 25 6.0 9.0 0.00 0.00 0.00 34 1007.5
20260505175826 65 70 7.0 9.0 0.00 0.00 0.00 36 1007.7
20260505175323 65 21 5.0 9.0 0.00 0.00 0.00 36 1007.3
20260505174819 66 27 8.0 10.0 0.00 0.00 0.00 35 1007.5
20260505174317 64 80 10.0 11.0 0.00 0.00 0.00 37 1007.7
20260505173812 64 11 9.0 9.0 0.00 0.00 0.00 37 1007.8
20260505173309 63 56 7.0 7.0 0.00 0.00 0.00 38 1007.8
20260505172806 63 344 5.0 11.0 0.00 0.00 0.00 38 1007.7
20260505172306 64 11 5.0 13.0 0.00 0.00 0.00 37 1007.8
20260505171758 64 64 5.0 15.0 0.00 0.00 0.00 38 1007.7
20260505171255 63 306 7.0 13.0 0.00 0.00 0.00 38 1007.7
20260505170752 64 8 14.0 15.0 0.00 0.00 0.00 38 1007.9
20260505170249 63 9 9.0 13.0 0.00 0.00 0.00 38 1007.8
20260505165744 63 54 5.0 11.0 0.00 0.00 0.00 38 1007.5
20260505165240 63 334 8.0 10.0 0.00 0.00 0.00 39 1007.7
20260505164736 63 358 9.0 13.0 0.00 0.00 0.00 39 1007.5
20260505164233 62 276 2.0 13.0 0.00 0.00 0.00 40 1007.5
20260505163731 64 7 11.0 16.0 0.00 0.00 0.00 38 1007.8
20260505163230 62 352 8.0 12.0 0.00 0.00 0.00 40 1007.8
20260505162726 63 20 5.0 11.0 0.00 0.00 0.00 40 1007.7
20260505162223 62 28 6.0 11.0 0.00 0.00 0.00 41 1007.9
20260505161720 62 15 5.0 11.0 0.00 0.00 0.00 41 1008.0
20260505161218 60 59 15.0 15.0 0.00 0.00 0.00 44 1007.9
20260505160715 60 7 11.0 14.0 0.00 0.00 0.00 43 1008.0
20260505160213 61 36 7.0 11.0 0.00 0.00 0.00 44 1007.8
20260505153152 59 50 12.0 13.0 0.00 0.00 0.00 46 1007.7
20260505152649 58 69 10.0 17.0 0.00 0.00 0.00 48 1008.0
20260505152144 58 70 7.0 11.0 0.00 0.00 0.00 48 1007.9
20260505151640 57 22 11.0 14.0 0.00 0.00 0.00 49 1008.1
20260505151138 58 358 12.0 17.0 0.00 0.00 0.00 49 1008.1
20260505150633 57 54 11.0 15.0 0.00 0.00 0.00 49 1007.9
20260505150131 57 14 11.0 15.0 0.00 0.00 0.00 49 1007.7
20260505140559 55 2 14.0 19.0 0.00 0.00 0.00 56 1007.0
20260505125013 56 37 5.0 15.0 0.00 0.00 0.00 55 1006.2
20260505124509 56 26 12.0 14.0 0.00 0.00 0.00 54 1006.2
20260505124006 57 0 11.0 16.0 0.00 0.00 0.00 54 1006.0
20260505123502 57 10 13.0 18.0 0.00 0.00 0.00 53 1005.6
20260505122958 57 2 14.0 17.0 0.00 0.00 0.00 52 1005.6
20260505122455 58 26 9.0 15.0 0.00 0.00 0.00 51 1005.6
20260505121952 58 32 9.0 17.0 0.00 0.00 0.00 49 1005.6
20260505121449 59 27 11.0 16.0 0.00 0.00 0.00 47 1005.7
20260505120945 59 19 11.0 18.0 0.00 0.00 0.00 46 1005.2
20260505120442 59 20 11.0 15.0 0.00 0.00 0.00 43 1005.2
20260505115941 60 10 13.0 16.0 0.00 0.00 0.00 41 1005.5
20260505115438 61 326 11.0 17.0 0.00 0.00 0.00 39 1005.0
20260505114936 64 299 17.0 18.0 0.00 0.00 0.00 32 1004.6
20260505114431 64 285 20.0 22.0 0.00 0.00 0.00 32 1004.5
20260505113928 65 289 15.0 25.0 0.00 0.00 0.00 31 1004.6
20260505113425 64 296 22.0 24.0 0.00 0.00 0.00 31 1004.8
20260505112920 65 262 16.0 25.0 0.00 0.00 0.00 31 1004.5
20260505112418 63 335 12.0 18.0 0.00 0.00 0.00 32 1005.0
20260505111914 64 266 14.0 19.0 0.00 0.00 0.00 32 1004.1
20260505111409 64 258 18.0 23.0 0.00 0.00 0.00 32 1004.0
20260505110906 64 258 21.0 25.0 0.00 0.00 0.00 32 1003.9
20260505110403 64 258 16.0 25.0 0.00 0.00 0.00 32 1004.5
20260505101833 62 257 18.0 18.0 0.00 0.00 0.00 32 1004.0
20260505101328 62 252 15.0 22.0 0.00 0.00 0.00 33 1004.3
20260505100824 62 243 19.0 21.0 0.00 0.00 0.00 33 1004.5
20260505100321 64 255 21.0 26.0 0.00 0.00 0.00 31 1004.4
20260505095817 63 259 17.0 29.0 0.00 0.00 0.00 31 1004.5
20260505095315 61 248 17.0 25.0 0.00 0.00 0.00 33 1004.5
20260505094810 64 251 19.0 23.0 0.00 0.00 0.00 31 1004.3
20260505094307 64 250 16.0 22.0 0.00 0.00 0.00 31 1004.3
20260505093803 64 263 17.0 21.0 0.00 0.00 0.00 31 1004.5
20260505093301 64 257 18.0 22.0 0.00 0.00 0.00 30 1004.4
20260505092757 64 262 14.0 22.0 0.00 0.00 0.00 30 1004.4
20260505092256 64 259 16.0 22.0 0.00 0.00 0.00 30 1004.0
20260505091753 64 263 13.0 18.0 0.00 0.00 0.00 30 1004.4
20260505091250 64 263 16.0 18.0 0.00 0.00 0.00 29 1004.1
20260505090748 65 280 14.0 18.0 0.00 0.00 0.00 29 1003.9
20260505090246 65 272 15.0 19.0 0.00 0.00 0.00 29 1003.8
20260505085743 64 266 9.0 18.0 0.00 0.00 0.00 29 1004.0
20260505085241 64 273 12.0 17.0 0.00 0.00 0.00 29 1004.1
20260505084738 64 265 11.0 15.0 0.00 0.00 0.00 28 1004.3
20260505084238 65 253 12.0 17.0 0.00 0.00 0.00 28 1004.0
20260505083734 65 259 12.0 17.0 0.00 0.00 0.00 27 1004.0
20260505083230 66 260 14.0 19.0 0.00 0.00 0.00 27 1003.8
20260505082726 65 255 13.0 18.0 0.00 0.00 0.00 27 1004.1
20260505082224 65 256 13.0 18.0 0.00 0.00 0.00 27 1003.8
20260505081719 66 263 14.0 18.0 0.00 0.00 0.00 27 1004.0
20260505081217 65 253 13.0 17.0 0.00 0.00 0.00 27 1003.9
20260505080714 66 256 12.0 21.0 0.00 0.00 0.00 26 1003.6
20260505080210 66 271 13.0 18.0 0.00 0.00 0.00 27 1003.7
20260505075706 65 265 13.0 16.0 0.00 0.00 0.00 27 1003.8
20260505075203 65 256 16.0 18.0 0.00 0.00 0.00 27 1003.7
20260505074700 65 257 11.0 19.0 0.00 0.00 0.00 28 1003.6
20260505074157 65 266 11.0 17.0 0.00 0.00 0.00 28 1003.7
20260505073654 64 262 14.0 17.0 0.00 0.00 0.00 29 1004.0
20260505073153 64 261 12.0 18.0 0.00 0.00 0.00 29 1004.1
20260505072648 63 252 16.0 17.0 0.00 0.00 0.00 30 1003.9
20260505072145 63 248 13.0 16.0 0.00 0.00 0.00 30 1004.0
20260505071640 63 250 13.0 15.0 0.00 0.00 0.00 30 1003.9
20260505071138 63 247 15.0 16.0 0.00 0.00 0.00 30 1004.0
20260505070635 62 243 11.0 13.0 0.00 0.00 0.00 32 1004.0
20260505070132 62 246 9.0 10.0 0.00 0.00 0.00 31 1003.9
20260505065627 62 247 8.0 10.0 0.00 0.00 0.00 32 1003.8
20260505065124 63 255 8.0 9.0 0.00 0.00 0.00 31 1003.9
20260505064621 63 244 7.0 10.0 0.00 0.00 0.00 31 1003.9
20260505064120 64 250 7.0 9.0 0.00 0.00 0.00 30 1003.8
20260505063617 64 249 8.0 12.0 0.00 0.00 0.00 30 1004.0
20260505063112 65 251 9.0 14.0 0.00 0.00 0.00 28 1003.9
20260505062609 66 240 10.0 12.0 0.00 0.00 0.00 28 1003.8
20260505062106 66 240 10.0 14.0 0.00 0.00 0.00 27 1003.9
20260505061603 66 236 9.0 13.0 0.00 0.00 0.00 28 1003.9
20260505061102 65 239 10.0 13.0 0.00 0.00 0.00 28 1003.8
20260505060559 65 244 10.0 12.0 0.00 0.00 0.00 29 1003.9
20260505060055 65 248 11.0 13.0 0.00 0.00 0.00 29 1003.9
20260505055551 65 247 11.0 14.0 0.00 0.00 0.00 28 1004.0
20260505055048 66 243 13.0 15.0 0.00 0.00 0.00 27 1003.7
20260505054545 67 231 11.0 14.0 0.00 0.00 0.00 27 1004.0
20260505054043 67 230 11.0 14.0 0.00 0.00 0.00 26 1003.9
20260505053540 68 230 10.0 14.0 0.00 0.00 0.00 26 1003.9
20260505053036 68 226 9.0 15.0 0.00 0.00 0.00 25 1004.0
20260505052533 68 225 11.0 14.0 0.00 0.00 0.00 25 1004.1
20260505052031 68 234 11.0 12.0 0.00 0.00 0.00 25 1003.9
20260505051527 68 230 9.0 12.0 0.00 0.00 0.00 25 1004.3
20260505051026 69 228 9.0 13.0 0.00 0.00 0.00 24 1004.4
20260505050524 68 231 9.0 11.0 0.00 0.00 0.00 25 1003.9